Regional Weather Roundup
Issued by NWS

Home | Current Version | Previous Version | Graphics & Text | Print | Product List | Glossary On
Versions: 1 2 3 4 5 6 7 8 9 10 11 12 13 14 15 16 17 18 19 20 21 22 23 24 25 26 27 28 29 30 31 32 33 34 35 36 37 38 39 40 41 42 43 44 45 46 47 48 49 50
000
ASUS45 KSLC 271410
RWRUT

UTAH REGIONAL WEATHER ROUNDUP
NATIONAL WEATHER SERVICE SALT LAKE CITY UT
800 AM MDT MON APR 27 2015

UTZ001>011-023>025-271500-

NORTHERN UTAH

CITY           SKY/WX    TMP DP  RH WIND       PRES   REMARKS
BRIGHAM CITY   SUNNY     41  32  70 CALM      30.24R
DUGWAY         MOSUNNY   40  24  53 S1        30.25
HILL AFB       NOT AVBL
LOGAN          CLOUDY    39  33  79 CALM      30.26R
OGDEN          SUNNY     43  36  76 NW8       30.21R
PROVO AIRPORT  MOSUNNY   43  36  75 SE5       30.21R
SALT LAKE CITY MOSUNNY   43  34  70 NW7       30.21R
VERNAL         PTSUNNY   49  33  54 VRB7      30.16R
WENDOVER       MOSUNNY   45  18  33 SE13      30.25R
HEBER CITY     CLOUDY    43  32  65 NE5       30.21R
WEST JORDAN    SUNNY     43  34  70 NW12      30.22R

$$

UTZ012>022-026-027-271500-

SOUTHERN/CENTRAL UTAH

CITY           SKY/WX    TMP DP  RH WIND       PRES   REMARKS
BLANDING       MOSUNNY   48  38  68 W6        30.12R
BRYCE CANYON   SUNNY     34  26  72 VRB5      30.17R WCI  30
CEDAR CITY     SUNNY     35  29  78 CALM      30.18R
DELTA          MOSUNNY   38  29  68 NW7       30.23R WCI  33
HANKSVILLE     SUNNY     45  34  65 CALM      30.11S
MILFORD        MOSUNNY   39  25  57 NW8       30.20R WCI  33
MOAB/CYNLANDS  MOSUNNY   51  40  65 CALM      30.06R
PRICE          NOT AVBL
ST GEORGE      SUNNY     52  32  46 S6        30.10R
KANAB          SUNNY     46  28  49 N13       30.14R

$$

REGIONAL REPORTS     COLORADO/ARIZONA

CITY           SKY/WX    TMP DP  RH WIND       PRES   REMARKS
CRAIG, CO      CLOUDY    41  39  93 SW6       30.17R
GRAND JUNCTION PTSUNNY   47  42  83 CALM      30.10R
RIFLE          CLOUDY    44  39  82 E3        30.14R
MONTROSE       CLOUDY    44  39  82 CALM      30.13R
CORTEZ         SUNNY     39  36  89 CALM      30.05R
PAGE, AZ       NOT AVBL
GRAND CANYON   SUNNY     35  28  75 CALM      30.09R
KINGMAN        SUNNY     50  28  42 E7        30.05R
FLAGSTAFF      SUNNY     43  30  60 NE21G29   30.05R

$$

REGIONAL REPORTS    NEVADA/IDAHO/WYOMING

CITY           SKY/WX    TMP DP  RH WIND       PRES   REMARKS
LAS VEGAS, NV  SUNNY     61  18  18 NW20G25   30.04R
ELY            SUNNY     33  19  56 NE6       30.26R WCI  28
ELKO           SUNNY     32  24  72 CALM      30.30R
POCATELLO, ID  MOSUNNY   39  30  70 SW6       30.30R WCI  35
BURLEY         SUNNY     37  27  67 SE3       30.29R
EVANSTON, WY   CLOUDY    35  32  88 N9        30.23R WCI  28
ROCK SPRINGS   MIX PCPN  35  32  88 NE10      30.24R WCI  27
KEMMERER       CLOUDY    34  34 100 SW3       30.25R

$$



USA.gov is the U.S. government's official web portal to all federal, state and local government web resources and services.